Shannon, Ireland

8:51 AM IST on March 28, 2017 (GMT +0100)
Shannon

Weather History for EINN - June, 2013

Change the Weather History Date:

Friday, June 21, 2013

  Actual Average Record
Temperature  
Mean Temperature 58 °F -  
Max Temperature 63 °F 66 °F 69 °F (2008)
Min Temperature 52 °F 53 °F 46 °F (2001)
Degree Days  
Heating Degree Days 8    
Growing Degree Days 8 (Base 50)    
Moisture  
Dew Point 50 °F    
Average Humidity 81    
Maximum Humidity 100    
Minimum Humidity 53    
Precipitation  
Precipitation 0.12 in 0.08 in - ()
Sea Level Pressure  
Sea Level Pressure 29.82 in    
Wind  
Wind Speed 11 mph ()    
Max Wind Speed 18 mph    
Max Gust Speed -    
Visibility 6.5 miles    
Events Rain    
Averages and records for this station are not official NWS values.
T = Trace of Precipitation, MM = Missing Value Source: Averaged Metar Reports

Daily Weather History Graph

Daily Weather History Graph

Search for Another Location

Airport or City:

Trip Planner

Search our weather history database for the weather conditions in past years. The results will help you decide how hot, cold, wet, or windy it might be!

Date:

Astronomy

Jun. 21, 2013 Rise Set
Actual Time 5:11 AM IST 10:03 PM IST
Civil Twilight 4:20 AM IST 10:54 PM IST
Nautical Twilight 2:55 AM IST 12:19 AM IST
Astronomical Twilight Sun does not rise Sun does not rise
Moon 7:47 PM IST (6/21) 3:30 AM IST (6/21)
Length of Visible Light 18h 33m
Length of Day
16h 52m
Waxing Gibbous, 94% of the Moon is Illuminated
Jun 21
Waxing Gibbous
Jun 23
Full
Jun 30
Last Quarter
Jul 8
New
Jul 16
First Quarter

Hourly Weather History & Observations

Time (IST) Temp. Dew Point Humidity Pressure Visibility Wind Dir Wind Speed Gust Speed Precip Events Conditions
12:00 AM 55.4 °F 55.4 °F 100% 29.89 in 6.2 mi West 8.1 mph - N/A   Mostly Cloudy
12:30 AM 55.4 °F 55.4 °F 100% 29.89 in 6.2 mi West 9.2 mph - N/A   Mostly Cloudy
1:00 AM 56 °F 54 °F 91% 29.89 in 12 mi West 11.2 mph - - Rain Light Drizzle
1:00 AM 55.4 °F 53.6 °F 94% 29.89 in 6.2 mi West 11.5 mph - N/A   Mostly Cloudy
1:30 AM 55.4 °F 53.6 °F 94% 29.89 in 6.2 mi West 15.0 mph - N/A   Mostly Cloudy
2:00 AM 55.4 °F 51.8 °F 88% 29.89 in 6.2 mi WNW 10.4 mph - N/A   Scattered Clouds
2:30 AM 53.6 °F 51.8 °F 94% 29.89 in 6.2 mi West 11.5 mph - N/A   Mostly Cloudy
3:00 AM 53.6 °F 51.8 °F 94% 29.89 in 6.2 mi West 9.2 mph - N/A   Mostly Cloudy
3:30 AM 53.6 °F 51.8 °F 94% 29.89 in 6.2 mi WNW 9.2 mph - N/A   Mostly Cloudy
4:00 AM 53.6 °F 51.8 °F 94% 29.89 in 6.2 mi NW 13.8 mph - N/A   Scattered Clouds
4:30 AM 53.6 °F 50.0 °F 88% 29.89 in 6.2 mi WNW 13.8 mph - N/A   Partly Cloudy
5:00 AM 51.8 °F 50.0 °F 94% 29.89 in 6.2 mi West 11.5 mph - N/A   Scattered Clouds
5:30 AM 53.6 °F 51.8 °F 94% 29.92 in 6.2 mi WNW 9.2 mph - N/A   Mostly Cloudy
6:00 AM 53.6 °F 50.0 °F 88% 29.92 in 6.2 mi WNW 8.1 mph - N/A   Mostly Cloudy
6:30 AM 53.6 °F 50.0 °F 88% 29.92 in 6.2 mi West 11.5 mph - N/A   Mostly Cloudy
7:00 AM 54 °F 49 °F 79% 29.93 in 19 mi WNW 11.2 mph - -   Mostly Cloudy
7:00 AM 53.6 °F 50.0 °F 88% 29.92 in 6.2 mi WNW 10.4 mph - N/A   Mostly Cloudy
7:30 AM 53.6 °F 48.2 °F 82% 29.92 in 6.2 mi West 12.7 mph - N/A   Mostly Cloudy
8:00 AM 53.6 °F 46.4 °F 77% 29.92 in 6.2 mi WNW 10.4 mph - N/A   Mostly Cloudy
8:30 AM 55.4 °F 46.4 °F 72% 29.92 in 6.2 mi West 11.5 mph - N/A   Scattered Clouds
9:00 AM 57.2 °F 46.4 °F 67% 29.92 in 6.2 mi West 10.4 mph - N/A   Partly Cloudy
9:30 AM 57.2 °F 44.6 °F 63% 29.92 in 6.2 mi West 12.7 mph - N/A   Partly Cloudy
10:00 AM 57.2 °F 44.6 °F 63% 29.89 in 6.2 mi WSW 10.4 mph - N/A   Partly Cloudy
10:30 AM 59.0 °F 48.2 °F 67% 29.89 in 6.2 mi WSW 17.3 mph - N/A   Mostly Cloudy
11:00 AM 57.2 °F 46.4 °F 67% 29.89 in 6.2 mi WSW 13.8 mph - N/A   Mostly Cloudy
11:30 AM 57.2 °F 44.6 °F 63% 29.89 in 6.2 mi WSW 11.5 mph - N/A   Mostly Cloudy
12:00 PM 59.0 °F 46.4 °F 63% 29.89 in 6.2 mi SW 12.7 mph - N/A   Mostly Cloudy
12:30 PM 59.0 °F 44.6 °F 59% 29.89 in 6.2 mi SW 12.7 mph - N/A   Mostly Cloudy
1:00 PM 59 °F 46 °F 53% 29.88 in 31 mi SW 11.2 mph - -   Mostly Cloudy
1:00 PM 59.0 °F 46.4 °F 63% 29.86 in 6.2 mi SW 10.4 mph - N/A   Mostly Cloudy
1:30 PM 59.0 °F 48.2 °F 67% 29.86 in 6.2 mi SW 10.4 mph - N/A   Mostly Cloudy
2:00 PM 60.8 °F 48.2 °F 63% 29.83 in 6.2 mi SSW 10.4 mph - N/A   Mostly Cloudy
2:30 PM 60.8 °F 48.2 °F 63% 29.83 in 6.2 mi SSW 9.2 mph - N/A   Mostly Cloudy
3:00 PM 62.6 °F 48.2 °F 59% 29.80 in 6.2 mi South 12.7 mph - N/A   Mostly Cloudy
3:30 PM 62.6 °F 48.2 °F 59% 29.80 in 6.2 mi South 10.4 mph - N/A   Mostly Cloudy
4:00 PM - 48.2 °F N/A% 29.80 in 6.2 mi SSW 13.8 mph - N/A   Mostly Cloudy
4:30 PM 60.8 °F 48.2 °F 63% 29.77 in 6.2 mi SSW 16.1 mph - N/A Rain Light Rain
5:00 PM 57.2 °F 50.0 °F 77% 29.77 in 5.0 mi SSW 16.1 mph - N/A Rain Light Rain
5:30 PM 55.4 °F 51.8 °F 88% 29.74 in 2.2 mi South 13.8 mph - N/A Rain Light Rain
6:00 PM 53.6 °F 51.8 °F 94% 29.74 in 3.7 mi SSE 15.0 mph - N/A Rain Light Rain
6:30 PM 53.6 °F 51.8 °F 94% 29.71 in 6.2 mi SE 15.0 mph - N/A   Light Drizzle
7:00 PM 54 °F 52 °F 91% 29.70 in 12 mi SSE 17.9 mph - - Rain Light Drizzle
7:00 PM 53.6 °F 51.8 °F 94% 29.68 in 6.2 mi SSE 17.3 mph - N/A   Overcast
7:30 PM 55.4 °F 51.8 °F 88% 29.65 in 6.2 mi SSE 16.1 mph - N/A   Mostly Cloudy
8:00 PM 55.4 °F 53.6 °F 94% 29.65 in 6.2 mi SSE 16.1 mph - N/A   Overcast
8:30 PM 57.2 °F 53.6 °F 88% 29.62 in 6.2 mi SSE 15.0 mph - N/A Rain Light Rain
9:00 PM 57.2 °F 53.6 °F 88% 29.62 in 6.2 mi SSE 12.7 mph - N/A Rain Light Rain
9:30 PM 57.2 °F 55.4 °F 94% 29.62 in 5.6 mi South 15.0 mph - N/A Rain Light Rain
10:00 PM 57.2 °F 55.4 °F 94% 29.59 in 5.6 mi South 15.0 mph - N/A Rain Light Rain
10:30 PM 57.2 °F 55.4 °F 94% 29.59 in 6.2 mi SW 15.0 mph - N/A   Mostly Cloudy
11:00 PM 57.2 °F 51.8 °F 82% 29.59 in 6.2 mi SSW 16.1 mph - N/A   Mostly Cloudy
11:30 PM 57.2 °F 51.8 °F 82% 29.59 in 6.2 mi SSW 13.8 mph - N/A   Mostly Cloudy